Location: Brooklyn Heights
(34.0486°N, 118.2120°W)
Time: 17:09:46
(UTC+00:00)

Daily predictions for brighter satellites

Satellite Brightness Start Highest point End
(mag) Time Altitude Azimuth Time Altitude Azimuth Time Altitude Azimuth
NOSS 3-1 (C) 4.0 12:08:54 67° WNW 12:09:59 74° WSW 12:18:48 10° SSE
H-2A R/B 3.9 12:05:47 10° NNE 12:09:11 39° ENE 12:09:11 39° ENE
Centaur D-1A AC-32 4.1 12:15:01 20° SSE 12:15:01 20° SSE 12:17:09 10° SE
Cosmos 1727 Rocket 4.1 12:20:22 10° S 12:26:31 75° E 12:32:41 10° N
Cosmos 1943 Rocket 3.1 12:24:13 10° N 12:29:29 45° ENE 12:34:43 10° SE
Cosmos 1339 Rocket 4.4 12:33:12 58° WNW 12:33:12 58° WNW 12:38:43 10° N
STARLINK-1061 4.4 12:35:02 44° SE 12:35:02 44° SE 12:37:56 10° SE
BREEZE-M DEB (TANK) 4.5 12:34:01 58° SW 12:34:19 59° SW 12:45:55 10° SE
Cosmos 292 Rocket 3.9 12:36:29 61° S 12:36:29 61° S 12:40:24 10° SSE
STARLINK-1067 4.2 12:39:48 48° SSE 12:39:48 48° SSE 12:42:52 10° SE
STARLINK-1098 3.9 12:41:54 56° NNE 12:41:54 56° NNE 12:45:13 10° NE
SL-16 R/B 4.1 12:44:31 14° NNW 12:44:31 14° NNW 12:45:47 10° N
Cosmos 2297 4.3 12:45:03 38° SW 12:45:03 38° SW 12:49:00 10° S
STARLINK-1058 4.1 12:44:36 49° S 12:44:36 49° S 12:47:49 10° SSE
Cosmos 1992 Rocket 4.1 12:44:57 54° SW 12:44:57 54° SW 12:49:29 10° S
COSMO-SKYMED 1 4.1 12:40:42 10° SE 12:44:39 36° ENE 12:48:38 10° N
STARLINK-1123 3.8 12:46:26 58° N 12:46:26 58° N 12:49:55 10° NE
Cosmos 2221 2.3 12:47:10 75° NW 12:47:10 75° NW 12:51:17 10° N
STARLINK-1043 4.0 12:49:21 49° S 12:49:21 49° S 12:52:44 10° SSE
STARLINK-1097 3.7 12:51:02 57° NNW 12:51:02 57° NNW 12:54:42 10° NE
FENGYUN 3A 4.1 12:47:12 10° NNE 12:52:35 62° E 12:57:57 10° S
STARLINK-1065 4.0 12:54:12 47° SSW 12:54:12 47° SSW 12:57:43 10° SSE
STARLINK-1099 3.7 12:55:35 53° NNW 12:55:35 53° NNW 12:59:25 10° NE
Lacrosse 5 2.8 12:52:10 17° NNW 12:55:47 46° NE 13:00:38 10° ESE
Cosmos 1484 Rocket 2.7 12:53:14 10° N 12:57:11 71° WNW 12:58:45 35° SSW
Cosmos 1603 3.7 12:55:29 35° SW 12:57:42 55° WNW 13:03:18 10° NNE
USA 229 DEB 4.4 12:56:55 33° W 12:57:51 34° WSW 13:04:33 10° S
USA 229 4.4 12:56:57 33° W 12:57:57 35° WSW 13:04:39 10° S
STARLINK-1063 4.0 12:58:55 44° SW 12:58:55 44° SW 13:02:32 10° SSE
Cosmos 2369 Rocket 2.6 12:53:28 10° NNW 12:59:09 65° ENE 13:04:48 10° SSE
STARLINK-1104 3.8 13:00:09 49° NW 13:00:11 49° NW 13:04:08 10° NE
Milstar 3 4.3 12:50:38 28° W 13:00:23 59° SSW 13:09:41 10° ESE
Cosmos 1943 3.1 12:58:05 18° SSW 13:02:20 67° WNW 13:07:56 10° NNE
STARLINK-1064 4.1 13:03:41 40° SW 13:03:41 40° SW 13:07:24 10° SSE
Aureole 2 Rocket 3.8 13:02:00 10° N 13:04:54 36° ENE 13:07:55 10° SE
STARLINK-1144 3.9 13:04:45 43° NW 13:04:59 44° NW 13:08:54 10° NNE
USA 267 3.7 12:59:06 10° SSE 13:05:07 39° SW 13:07:40 28° W
NOSS 3-1 (A) 4.3 12:59:22 19° NW 13:05:14 51° WSW 13:13:41 10° S
STARLINK-1041 4.2 13:08:29 35° SW 13:08:31 35° SW 13:12:17 10° SSE
Cosmos 1459 Rocket 4.3 13:02:35 10° N 13:08:45 68° E 13:15:01 10° SSE
CZ-2C R/B 4.0 13:04:55 10° NNW 13:07:08 19° NW 13:07:08 19° NW
STARLINK-1103 4.0 13:09:19 39° WNW 13:09:45 40° NW 13:13:37 10° NNE
STARLINK-1128 4.1 13:10:51 36° NW 13:11:14 37° NW 13:15:01 10° NNE
CZ-4B DEB 4.4 13:07:13 10° NNE 13:12:41 74° ESE 13:18:07 10° S
ALOS 2.1 13:08:06 10° N 13:12:46 78° WNW 13:17:25 10° SSW
STARLINK-1038 4.4 13:13:16 31° WSW 13:13:27 32° SW 13:17:08 10° SSE
STARLINK-1101 4.2 13:13:55 34° WNW 13:14:33 36° NW 13:18:21 10° NNE
Cosmos 1023 Rocket 4.5 13:10:20 10° SSW 13:15:31 63° WNW 13:20:46 10° N
PSLV R/B 3.6 13:12:03 10° N 13:15:47 64° WNW 13:19:33 10° SSW
STARLINK-1113 4.3 13:15:11 32° WNW 13:15:47 34° NW 13:19:30 10° NNE
DELTA 2 R/B (1) 3.5 13:13:01 27° WSW 13:16:08 85° NNW 13:21:44 10° ENE
MOS 1-B 4.4 13:10:26 10° NNE 13:16:17 87° ESE 13:22:06 10° SSW
STARLINK-1102 4.4 13:18:31 30° WNW 13:19:22 33° NW 13:23:06 10° NNE
CZ-4B R/B 4.0 13:15:12 10° NNE 13:20:22 52° E 13:25:29 10° S
STARLINK-1119 4.4 13:19:37 29° WNW 13:20:25 32° NW 13:24:04 10° NNE
Atlas Centaur 2 4.1 13:13:40 10° SW 13:21:21 40° SSE 13:29:01 10° E
Meteor 2-3 Rocket 4.1 13:19:21 10° NNW 13:24:44 41° W 13:30:07 10° SSW
ATLAS 2A CENTAUR R/B 2.9 13:26:13 12° SSW 13:27:46 16° S 13:30:58 10° SE
Shenzhou-11 Module 3.6 13:29:37 17° NNW 13:29:55 17° NNW 13:31:46 10° NNE
Cosmos 1802 Rocket 4.1 13:25:33 10° N 13:32:01 86° E 13:38:24 10° S
SKYMED 2 3.6 13:28:23 10° S 13:32:39 58° W 13:36:56 10° NNW
Cosmos 1954 Rocket 4.0 13:29:53 10° SSW 13:35:08 64° WNW 13:40:26 10° N
Cosmos 407 Rocket 4.4 13:32:13 12° WSW 13:36:26 28° WNW 13:40:59 10° N
Cosmos 1140 Rocket 3.9 13:31:43 10° SW 13:36:36 40° WNW 13:41:32 10° N
BREEZE-M DEB (TANK) 3.2 13:34:11 17° WSW 13:36:50 57° NNW 13:41:54 10° NE
Cosmos 1805 Rocket 3.4 13:32:42 10° N 13:37:03 81° W 13:41:22 10° S
Sich 1 3.3 13:34:13 10° N 13:38:31 72° E 13:42:48 10° SSE
Cosmos 2084 4.3 13:37:46 14° WSW 13:41:02 33° NW 13:45:08 10° NNE
ADEOS Rocket 3.8 13:35:25 10° SSE 13:41:21 60° ENE 13:47:58 10° N
Cosmos 1400 Rocket 2.7 13:37:48 10° S 13:41:47 81° W 13:45:51 10° N
Cosmos 1869 4.4 13:39:11 10° SW 13:42:26 24° WNW 13:45:40 10° NNW
Cosmos 1500 Rocket 4.5 13:40:35 10° NNW 13:44:16 26° W 13:47:54 10° SSW
H-2A R/B 4.2 13:42:40 10° NNW 13:45:06 15° WNW 13:45:47 14° WNW
PAYLOAD B 4.3 13:45:59 10° N 13:51:25 56° WNW 13:56:48 10° SSW
GPS 2-05 Rocket1 3.2 13:50:13 10° SW 13:52:24 34° SSE 13:54:36 10° E
SMAP 4.1 13:47:59 10° NNE 13:52:31 50° E 13:57:01 10° S
Okean O Rocket 1.6 13:52:01 10° N 13:56:18 58° WNW 14:00:32 10° SSW
Cosmos 2016 Rocket 4.0 13:50:35 10° N 13:56:49 72° W 14:03:06 10° S
Cosmos 1151 Rocket 3.2 13:55:03 10° S 13:59:19 79° E 14:03:39 10° N
Aurora 2 Rocket 4.1 13:58:42 10° WSW 14:02:28 23° S 14:05:28 10° SE
Cosmos 1328 Rocket 3.6 14:00:42 10° S 14:05:08 85° W 14:09:36 10° N
Cosmos 1741 Rocket 4.1 14:00:03 10° SSW 14:05:16 88° ESE 14:10:33 10° NNE
Cosmos 1633 3.6 14:03:38 10° NW 14:06:39 25° W 14:09:38 10° SSW
H-2A R/B 2.6 14:04:42 10° N 14:08:26 76° WNW 14:12:06 10° SSW
